カタログに戻る

STARLINK-37462

運用中通信SSO
NORAD 68822·PAYLOAD·🇺🇸 United States

打ち上げ Apr 23, 2026 から Vandenberg Space Force Base

Loading…

次のパス (今後24時間)

TLE

最新Source: CelesTrak SupGP

元期: Sep 14, 2026, 22:51 UTC

1 68822C 26089W   26257.95256944  .00085791  00000+0  26642-2 0  2575
2 68822  97.2850 103.8349 0001811  95.4943 187.3961 15.33382970    19

AllMySatでSTARLINK-37462をリアルタイム追跡

Download on the App Store